Location: Shepherdstown, WV
(39.4326°N, 77.8042°W)
Time: 05:02:06
(UTC-04:00)

SR - Pass Details

Date: 03 August 2021
Orbit: 581 x 874 km, 66.7° (Epoch: 24 September)

Event Time Altitude Azimuth Distance (km) Brightness Sun altitude
Rises 06:23:43 0° 204° (SSW) 3,445 ? 1.1°
Reaches altitude 10° 06:26:14 10° 204° (SSW) 2,501 ? 1.5°
Maximum altitude 06:32:04 82° 117° (ESE) 854 ? 2.6°
Drops below altitude 10° 06:37:37 10° 31° (NNE) 2,390 ? 3.6°
Sets 06:39:59 0° 30° (NNE) 3,283 ? 4.0°
